This demonstration page uses our WeatherBlox Daily Observations layout. Learn more.

Left ArrowRight Arrow

40.92945, -100.16068

Hourly Observations for July 2, 2019

Temp ( °F °C ) Dew Point ( °F °C ) Humidity (%) Winds ( mph kmh ) Pressure ( in mb ) Visibility ( mi km ) Precip ( " mm )
12:15 am 00:15 Mostly Cloudy with Drizzle 69 20.3 67 19.5 95 95 N N/A 29.89 1012 10 16 N/A
12:35 am 00:35 Partly Cloudy with Light Rain 69 20.4 67 19.6 95 95 N N/A 29.88 1012 10 16 N/A
12:55 am 00:55 Partly Cloudy 69 20.5 67 19.7 95 95 SE 3 6 29.88 1012 10 16 N/A
1:15 am 01:15 Clear 68 20.2 68 19.8 98 98 SE 5 7 29.87 1012 10 16 N/A
1:35 am 01:35 Clear 69 20.6 67 19.7 95 95 ESE 7 11 29.86 1011 10 16 N/A
1:55 am 01:55 Clear 69 20.7 67 19.6 93 93 ESE 6 9 29.88 1012 10 16 N/A
2:15 am 02:15 Mostly Cloudy with Light Rain 69 20.5 67 19.5 94 94 SE 5 7 29.88 1012 10 16 N/A
2:35 am 02:35 Partly Cloudy 69 20.3 67 19.6 96 96 SE 6 9 29.87 1011 10 16 N/A
2:55 am 02:55 Clear 68 20.1 67 19.6 97 97 S 5 7 29.87 1012 10 16 N/A
3:15 am 03:15 Clear 68 20.1 67 19.6 97 97 N N/A 29.86 1011 10 16 N/A
3:35 am 03:35 Clear 68 20 67 19.6 98 98 W 3 6 29.86 1011 10 16 N/A
3:55 am 03:55 Clear 68 20 67 19.6 98 98 WNW 3 6 29.86 1011 7 11 N/A
4:15 am 04:15 Partly Cloudy 68 20 68 19.8 99 99 NNW 3 6 29.86 1011 7 11 N/A
4:35 am 04:35 Clear 68 19.8 67 19.7 99 99 E 5 7 29.84 1011 7 11 N/A
4:55 am 04:55 Clear 68 20 67 19.6 98 98 SSE 6 9 29.84 1011 7 11 N/A
5:15 am 05:15 Partly Cloudy 68 20.1 67 19.6 97 97 N N/A 29.83 1010 7 11 N/A
5:35 am 05:35 Partly Cloudy 67 19.7 67 19.6 99 99 N N/A 29.85 1011 7 11 N/A
5:55 am 05:55 Clear with Mist and Fog 67 19.6 67 19.6 100 100 N N/A 29.85 1011 5 8 N/A
6:15 am 06:15 Sunny with Mist and Fog 67 19.6 67 19.6 100 100 N 5 7 29.87 1011 5 8 N/A
6:35 am 06:35 Mostly Cloudy with Mist and Fog 67 19.7 67 19.7 100 100 N 7 11 29.86 1011 3 5 N/A
6:55 am 06:55 Mostly Cloudy with Light Rain 68 20 67 19.7 98 98 N N/A 29.85 1011 4 6 N/A
7:15 am 07:15 Sunny with Mist and Fog 68 20 68 19.9 99 99 N N/A 29.84 1011 3 5 0.01 0.25
7:35 am 07:35 Partly Cloudy with Light Rain 68 20 68 19.9 99 99 ENE 6 9 29.83 1010 4 6 0.01 0.25
7:55 am 07:55 Mostly Cloudy with Light Rain 69 20.7 69 20.3 98 98 N N/A 29.84 1010 5 8 0.01 0.25
8:15 am 08:15 Partly Cloudy 70 21.2 69 20.4 95 95 SSE 3 6 29.83 1010 7 11 N/A
8:35 am 08:35 Sunny 71 21.5 69 20.4 93 93 SSW 5 7 29.84 1010 7 11 N/A
8:55 am 08:55 Sunny 71 21.7 69 20.5 93 93 SSW 3 6 29.85 1011 7 11 N/A
9:15 am 09:15 Sunny 72 22 69 20.7 92 92 SSE 3 6 29.85 1011 7 11 N/A
9:35 am 09:35 Sunny 72 22.3 69 20.6 90 90 SSW 3 6 29.84 1011 7 11 N/A
9:55 am 09:55 Sunny 73 22.5 70 20.9 91 91 W 3 6 29.85 1011 10 16 N/A
10:15 am 10:15 Sunny 74 23.1 69 20.7 86 86 W 3 6 29.84 1010 10 16 N/A
10:35 am 10:35 Sunny 75 23.9 70 20.9 83 83 W 3 6 29.83 1010 10 16 N/A
10:55 am 10:55 Sunny 76 24.6 69 20.4 78 78 W 3 6 29.82 1010 10 16 N/A
11:15 am 11:15 Sunny 78 25.3 69 20.5 75 75 N N/A 29.82 1010 10 16 N/A
11:35 am 11:35 Sunny 78 25.5 68 20 72 72 N N/A 29.82 1010 10 16 N/A
11:55 am 11:55 Sunny 78 25.8 67 19.7 69 69 N N/A 29.81 1010 10 16 N/A
12:15 pm 12:15 Sunny 79 25.9 67 19.6 68 68 NNW 5 7 29.81 1010 10 16 N/A
12:35 pm 12:35 Partly Cloudy 78 25.6 68 19.8 70 70 NW 3 6 29.83 1010 10 16 N/A
1:15 pm 13:15 Partly Cloudy 77 24.8 70 21.1 80 80 NW 5 7 29.83 1010 10 16 N/A
1:35 pm 13:35 Sunny 77 25 70 21.2 80 80 N N/A 29.82 1010 10 16 N/A
1:55 pm 13:55 Sunny 77 25.2 70 21.3 79 79 N N/A 29.82 1010 10 16 N/A
2:15 pm 14:15 Sunny 78 25.5 71 21.5 79 79 N 3 6 29.81 1009 10 16 N/A
2:35 pm 14:35 Sunny 79 26 71 21.7 77 77 NNW 5 7 29.81 1010 10 16 N/A
2:55 pm 14:55 Sunny 79 26.1 71 21.6 76 76 N N/A 29.79 1009 10 16 N/A
3:15 pm 15:15 Sunny 80 26.4 71 21.9 76 76 NW 6 9 29.80 1009 10 16 N/A
3:35 pm 15:35 Sunny 80 26.6 71 21.8 75 75 N 6 9 29.79 1009 10 16 N/A
3:55 pm 15:55 Sunny 80 26.7 72 22 75 75 NNW 7 11 29.79 1009 10 16 N/A
4:15 pm 16:15 Partly Cloudy 80 26.5 72 22.2 77 77 NNW 8 13 29.78 1008 10 16 N/A
4:35 pm 16:35 Sunny 80 26.7 73 22.7 79 79 NNW 8 13 29.77 1008 10 16 N/A
4:55 pm 16:55 Sunny 81 27.2 73 22.6 76 76 N 6 9 29.75 1008 10 16 N/A
5:15 pm 17:15 Sunny 82 27.5 73 22.6 75 75 N 5 7 29.74 1007 10 16 N/A
5:35 pm 17:35 Sunny 81 27.3 72 22.1 73 73 NE 5 7 29.74 1007 10 16 N/A
5:55 pm 17:55 Sunny 82 27.5 72 22.2 73 73 NNE 6 9 29.73 1007 10 16 N/A
6:15 pm 18:15 Sunny 81 27.1 73 22.5 76 76 NE 7 11 29.73 1007 10 16 N/A
6:35 pm 18:35 Sunny 81 27 73 22.6 77 77 NNE 6 9 29.72 1007 10 16 N/A
6:55 pm 18:55 Sunny 80 26.6 73 22.9 80 80 NNE 7 11 29.72 1006 10 16 N/A
7:15 pm 19:15 Sunny 80 26.6 73 22.7 79 79 NNE 8 13 29.72 1006 10 16 N/A
7:35 pm 19:35 Sunny 79 26.1 73 22.5 81 81 NE 6 9 29.72 1006 10 16 N/A
7:55 pm 19:55 Sunny 79 26.3 72 22.2 78 78 NE 6 9 29.72 1006 10 16 N/A
8:15 pm 20:15 Sunny 78 25.7 72 22.1 81 81 NE 6 9 29.72 1007 10 16 N/A
8:35 pm 20:35 Sunny 76 24.5 72 22.2 87 87 NE 5 7 29.72 1007 10 16 N/A
8:55 pm 20:55 Sunny 75 24 72 22.2 90 90 NNE 3 6 29.74 1007 10 16 N/A
9:15 pm 21:15 Clear 74 23.5 72 22.1 92 92 NE 3 6 29.74 1007 10 16 N/A
9:35 pm 21:35 Partly Cloudy 72 22.3 71 21.8 97 97 N 5 7 29.76 1008 7 11 N/A
9:55 pm 21:55 Partly Cloudy 72 22.2 71 21.8 98 98 N N/A 29.77 1008 7 11 N/A
10:15 pm 22:15 Partly Cloudy with Mist and Fog 72 22.1 71 21.8 98 98 N N/A 29.78 1009 5 8 N/A
10:35 pm 22:35 Clear with Mist and Fog 71 21.5 71 21.4 99 99 NE 3 6 29.80 1009 4 6 N/A
10:55 pm 22:55 Clear with Mist and Fog 70 21.1 70 21.1 100 100 N N/A 29.80 1009 4 6 N/A
11:15 pm 23:15 Clear with Mist and Fog 70 21.2 70 21.2 100 100 E 3 6 29.80 1009 4 6 N/A
11:35 pm 23:35 Clear with Mist and Fog 70 21.2 70 21.1 99 99 ENE 5 7 29.80 1009 5 8 N/A
11:55 pm 23:55 Clear with Mist and Fog 71 21.4 70 21.2 99 99 N N/A 29.81 1009 4 6 N/A

Powered by AerisWeather